Weather in Janske Lazne

Czech Republic     50°37′47″N   15°47′12″E
temp.,
°C
wind,
m/s
gust,
m/s
humid.,
%
clouds,
%
prec.,
mm/h
press.,
hPa
HPBL,
m
10 may, mon
mon1023:00+9s499374 0.0 1014261
02:00+8s5129338 0.0 1012412
05:00+7s5118853 0.0 1012407
08:00+10s59744 0.0 1011396
11:00+15s466212 0.0 1011541
14:00+19s45575 0.0 1011742
17:00+18s34627 0.0 1012840
20:00+14s368787 0.0 1013194
11 may, tue
tue1123:00+11s249426 0.0 101285
02:00+11sse399215 0.0 1010328
05:00+10s3119138 0.0 1008447
08:00+14s5117582 0.0 1008681
11:00+17s486268 0.0 1007836
14:00+20s595749 0.0 10071191
17:00+19s6116363 0.0 10061174
20:00+16sse3108346 0.0 1006662
12 may, wed
wed1223:00+12sse229615 0.0 100734
02:00+12s259545 0.0 1006169
05:00+12s1396100 0.0 1006158
08:00+12nne1198100 0.1 1006279
11:00+12ne1196100 0.2 1007288
14:00+13nne119198 0.3 1006402
17:00+12n2395100 0.5 1006272
20:00+10n3599100 3.3 1006240
13 may, thu
thu1323:00+8n3599100 1.3 1006216
02:00+8nnw2399100 1.6 1005149
05:00+8n239998 0.2 1004232
08:00+9nne249256 0.3 1004454
11:00+13ne33600 0.0 10021041
14:00+16nne224836 0.0 10021664
17:00+13nne236477 0.2 1002883
20:00+10n228925 0.4 100358
14 may, fri
fri1423:00+7nnw229978 0.1 1005128
02:00+8nw129791 0.1 1005160
05:00+7wnw129894 0.0 100594
08:00+8wnw129399 0.0 1006360
11:00+9w128983 0.3 1007465
14:00+12wnw237774 1.4 1007855
17:00+11wnw2377100 1.1 1008733
20:00+8nw119188 1.3 101073